{"data":{"norad_id":59536,"intl_designator":"2024-074C","name":"STARLINK-31721","alt_names":[],"object_type":"PAYLOAD","status":"ACTIVE","operator":null,"country":"US","launch_date":"2024-04-18","launch_site_code":"AFETR","launch_vehicle":null,"mission":null,"orbit_class":"UNKNOWN","rcs_meters":null,"size_class":null,"mass_kg":null,"dimensions":null,"purposes":["comms"],"wikipedia_slug":null,"has_3d_model":false,"image_url":null,"decayed_at":null,"tle_current":{"epoch":"2026-05-24T17:02:12.863904Z","epoch_age_seconds":100171,"freshness":"FRESH","line1":"1 59536U 24074C   26144.70987111  .00005247  00000+0  19984-3 0  9997","line2":"2 59536  43.0014 273.9444 0002100 244.8194 115.2440 15.27616421117641","mean_motion":15.27616421,"eccentricity":0.00021,"inclination_deg":43.0014,"raan_deg":273.9444,"arg_perigee_deg":244.8194,"mean_anomaly_deg":115.244,"bstar":0.00019984,"rev_number":11764,"period_min":94.264501232407,"perigee_km":481.49921445151,"apogee_km":484.38086680857,"semimajor_km":6861.07704063,"source":"CELESTRAK","updated_at":"2026-05-25T13:38:18.978675Z"}}}